Regional Weather Roundup
Issued by NWS San Diego, CA

Home | Current Version | Previous Version | Text Only | Print | Product List | Glossary On
Versions: 1 2 3 4 5 6 7 8 9 10 11 12 13 14 15 16 17 18 19 20 21 22 23 24 25 26 27 28 29 30 31 32 33 34 35 36 37 38 39 40 41 42 43 44 45 46 47 48 49 50
000
ASUS46 KSGX 271311
RWRSGX

SAN DIEGO HOURLY WEATHER ROUNDUP
NATIONAL WEATHER SERVICE SAN DIEGO CA
600 AM PDT WED JUL 27 2016

NOTE: "FAIR" INDICATES FEW OR NO CLOUDS BELOW 12,000 FEET WITH NO
SIGNIFICANT WEATHER AND/OR OBSTRUCTIONS TO VISIBILITY.

CAZ042-043-060-061-PZZ750-775-271400-

GREATER SAN DIEGO AREA

CITY           SKY/WX    TMP DP  RH WIND       PRES   REMARKS
LINDBERGH FLD  PTCLDY    68  67  96 W3        29.90R
POINT LOMA       N/A     67  64  91 NW7         N/A
NATIONAL CITY    N/A    N/A N/A N/A CALM      29.90R
CHULA VISTA      N/A     68  66  93 CALM      29.81R
IMPERIAL BEACH CLEAR     66  62  87 CALM      29.89R
BROWN FIELD    CLEAR     69  65  86 CALM      29.89R
MIRAMAR MCAS   PTCLDY    71  66  84 NW5       29.89R
MONTGOMERY FLD CLEAR     70  66  87 CALM      29.90R

$$

NORTH SAN DIEGO COUNTY

CITY           SKY/WX    TMP DP  RH WIND       PRES   REMARKS
CAMP PENDLETON CLEAR     64  61  90 W3        29.88R
OCEANSIDE AP   CLEAR     66  63  90 CALM      29.88R
OCEANSIDE HBR    N/A     70  67  91 NE1       29.91R
VISTA            N/A     67  62  83 CALM      29.86R
CARLSBAD       PTCLDY    71  68  90 CALM      29.88R
DEL MAR          N/A     68  67  96 CALM      29.90R
LA JOLLA SCRIP   N/A     70  69  98 W1        29.88R
FALLBROOK        N/A     67  67  99 CALM      29.87R
ESCONDIDO        N/A     71  65  81 CALM      29.89R
SAN MARCOS       N/A     69  60  75 CALM      29.91R
POWAY            N/A     66  60  80 CALM      29.89R

$$

EAST SAN DIEGO COUNTY

CITY           SKY/WX    TMP DP  RH WIND       PRES   REMARKS
RAMONA         CLEAR     65  52  62 CALM      29.92R
SANTEE LAKES     N/A     67  62  83 CALM      29.87R
LA MESA          N/A     68  64  87 CALM      29.81R
JAMUL            N/A     66  63  89 CALM      29.87R
DESCANSO N       N/A     67  52  58 E5        29.74R
MT. LAGUNA OBS   N/A     72  45  37 NW3       29.78R
CAMPO            N/A     65  51  60 NE3       29.96R

$$

ORANGE COUNTY AND THE LOS ANGELES BASIN

CITY           SKY/WX    TMP DP  RH WIND       PRES   REMARKS
JOHN WAYNE AP  PTCLDY    70  66  87 SW3       29.88R
LAKE FOREST FR   N/A     69  42  37 CALM      29.75R
HUNTINGTON BCH   N/A     68  66  94 CALM      29.90R
LOS ALAMITOS   FAIR      69  64  85 W2        29.88R
FULLERTON      CLEAR     72  63  73 CALM      29.87R
LONG BEACH     CLEAR     70  65  84 NW6       29.88R
L.A. AP        PTCLDY    69  65  86 NW3       29.89R
L.A. DOWNTOWN  CLEAR     68  64  87 CALM      29.88R

$$

THE INLAND EMPIRE

CITY           SKY/WX    TMP DP  RH WIND       PRES   REMARKS
CORONA         CLEAR     65  53  65 CALM      29.90R
CHINO          CLEAR     69  54  58 CALM      29.91R
ONTARIO        PTCLDY    74  50  42 CALM      29.90S
SAN BERNARDINO FAIR      76  49  38 CALM      29.91S
RIVERSIDE AP   CLEAR     74  51  44 CALM      29.90R
MORENO VALLEY    N/A     74  49  41 CALM      28.04S
MARCH ARB      CLEAR     72  42  34 CALM      29.92S
HORSETHIEF CYN   N/A     72  46  40 CALM      29.88S
PERRIS           N/A     74  49  41 CALM      29.93R
HEMET EAST       N/A     94  45  18 W2        29.75S
FRENCH VALLEY  FAIR      70  50  49 CALM      29.93R
TEMECULA         N/A     70  56  60 E1        29.87S

$$

SAN BERNARDINO AND RIVERSIDE COUNTY MOUNTAINS

CITY           SKY/WX    TMP DP  RH WIND       PRES   REMARKS
BIG BEAR AP    CLEAR     52  41  66 CALM      30.31R
PINE COVE        N/A     70  51  50 NW3       29.81R

$$

SOUTHERN DESERT INCLUDING THE COACHELLA VALLEY

CITY           SKY/WX    TMP DP  RH WIND       PRES   REMARKS
PALM SPRINGS   CLEAR     90  53  28 SE3       29.80R
THOUSAND PALMS   N/A     94  49  21 NW13      29.74R
PALM DESERT      N/A     87  62  43 CALM      27.62S
THERMAL        CLEAR     87  64  46 SE6       29.74R
BLYTHE         CLEAR     89  63  41 S12       29.78R
IMPERIAL AP    CLEAR     87  72  60 SE5       29.74R
EL CENTRO NAS  PTCLDY    84  70  62 S3        29.76R
YUMA AZ        PTCLDY    88  63  43 N3        29.77

$$

UPPER DESERT

CITY           SKY/WX    TMP DP  RH WIND       PRES   REMARKS
VICTORVILLE AP CLEAR     79  43  27 SE7       29.99R
HESPERIA         N/A     75  47  37 W2        29.90R
PALMDALE       CLEAR     79  43  27 S8        29.96R
LANCASTER      CLEAR     80  41  24 SW7       29.94R
EDWARDS AFB    PTCLDY    76  40  26 SW12      29.91R
DAGGETT        CLEAR     83  46  27 W13       29.90R
29 PALMS N     PTCLDY    84  45  25 NW5       29.96R
NEEDLES        CLEAR     96  55  25 CALM      29.80R

$$

REGIONAL REPORTS

CITY           SKY/WX    TMP DP  RH WIND       PRES   REMARKS
SANTA BARBARA  CLOUDY    62  62 100 CALM      29.88R FOG
SANDBERG       CLEAR     80  39  23 NW13      30.12S
LAS VEGAS NV   PTCLDY    91  44  19 S3        29.84R
PHOENIX AZ     PTCLDY    91  63  39 SE6       29.84R
TIJUANA        MOCLDY    68  61  77 CALM      29.92R
ENSENADA NW      N/A     70  32  24 E6        29.85S

$$

OFFSHORE ISLANDS

CITY           SKY/WX    TMP DP  RH WIND       PRES   REMARKS
CATALINA ARPT  CLEAR     79  -8   3 W3        29.94R
SAN NICOLAS IS FOG       66  32  28 E5        29.90R VSB 3/4

$$

MARINE AND OFFSHORE BUOY REPORTS

STATION/POSITION SKY/WX   TEMP    WIND        PRES    SWELL
                          AIR SEA DIR/SP/G            HT/PER/DIR
                          (F)     (DEG/KT/KT) (MB)    (FT/S/D)
TANNER BANKS               60 65  300/  6/  8 1012.7R   5/290/ 9
S CLEMENTE BASIN           66 70  290/  8/ 10 1011.8R   3/200/13
SAN NICOLAS IS.               63                N/A     2/190/13
SO. S. ROSA ISLA           60 67  300/ 10/ 12 1011.9R   7/310/ 9
W. S. BARBARA CH           60 61  320/ 14/ 16 1011.5R   5/310/10
M. S. BARBARA CH                  260/  4/  6 1012.0R
S. MONICA BASIN            67 71  260/  4/  6 1011.1R
S PEDRO CHANNEL               71                N/A     2/170/13
OCEANSIDE OFFSHR              76                N/A     2/200/12
LA JOLLA 1                 71 70  170/  1/  2 1011.4R
SAN DIEGO BAY                 78              1011.8R
POINT LOMA SOUTH              72                N/A     2/200/13

$$




USA.gov is the U.S. government's official web portal to all federal, state and local government web resources and services.